z/d,0,0,50,50,100,100,150,150,200,200,300,300,400,400,500,500,600,600,750,750,1000,1000,1250,1250,1500,1500,1750,1750,1900,1900,2000,2000
2018.11.21-01:00,1.86,224.18,1.82,225.38,1.67,235.51,1.60,235.87,1.44,241.45,1.16,247.84,.86,251.01,.87,254.60,.84,257.15,.83,257.33,.72,254.91,.72,252.86,.65,243.57,.57,234.09,.54,233.53,.14,205.02
2018.11.21-02:00,2.03,225.69,1.98,226.73,1.71,233.99,1.63,236.23,1.44,240.55,1.17,245.38,.85,247.40,.87,254.69,.86,257.63,.84,257.04,.73,253.53,.73,251.67,.66,243.92,.55,237.37,.52,234.87,.13,206.26
2018.11.21-03:00,2.13,228.12,2.07,229.06,1.75,233.35,1.66,237.65,1.45,240.28,1.20,243.39,.87,243.39,.88,254.05,.86,257.63,.84,256.60,.75,252.72,.73,250.49,.66,243.81,.51,238.88,.48,233.88,.13,206.51
2018.11.21-04:00,2.15,231.46,2.08,232.36,1.78,233.72,1.66,239.87,1.46,240.79,1.23,242.97,.90,240.67,.88,253.29,.86,257.21,.83,255.73,.75,251.96,.71,249.10,.63,242.92,.46,237.76,.43,230.00,.13,205.21
2018.11.21-05:00,2.09,235.91,2.03,236.86,1.79,234.81,1.64,242.11,1.46,241.37,1.26,243.75,.92,239.55,.88,252.71,.85,256.56,.81,254.39,.75,250.96,.70,247.57,.60,241.47,.40,233.85,.39,223.62,.13,202.99
2018.11.21-06:00,1.96,240.54,1.90,241.66,1.75,235.95,1.58,243.11,1.44,241.08,1.26,244.46,.94,239.69,.87,252.75,.83,256.18,.79,253.01,.73,250.00,.67,246.27,.57,240.16,.36,228.25,.36,216.32,.13,200.76
2018.11.21-07:00,1.81,244.14,1.75,245.46,1.69,236.95,1.49,242.59,1.41,240.10,1.24,244.73,.94,241.01,.86,253.76,.81,256.59,.77,252.21,.71,249.47,.65,245.25,.54,239.07,.33,221.66,.36,208.94,.13,197.95
2018.11.21-08:00,1.68,246.50,1.63,247.79,1.62,237.80,1.41,241.16,1.37,239.23,1.21,245.01,.93,243.04,.84,255.23,.80,257.53,.76,252.13,.70,249.57,.64,244.42,.52,237.94,.33,215.30,.38,203.04,.13,195.30
2018.11.21-09:00,1.55,247.49,1.51,248.90,1.55,238.50,1.34,239.60,1.33,239.13,1.18,245.87,.91,245.09,.82,256.06,.80,258.17,.77,252.36,.70,250.11,.63,243.74,.51,236.62,.36,211.43,.42,200.68,.14,194.90
2018.11.21-10:00,1.38,245.19,1.35,246.82,1.47,238.15,1.29,237.85,1.29,239.59,1.15,247.26,.90,246.93,.81,255.90,.81,258.24,.80,252.79,.72,251.05,.64,243.47,.52,235.44,.42,211.52,.48,202.44,.15,197.95
2018.11.21-11:00,1.25,239.53,1.23,240.49,1.42,236.50,1.29,235.97,1.28,240.12,1.15,248.77,.90,248.56,.83,255.31,.83,257.87,.84,253.50,.75,252.14,.66,243.31,.53,233.98,.48,213.82,.53,206.32,.17,202.57
2018.11.21-12:00,1.29,233.34,1.27,234.08,1.46,234.59,1.34,233.77,1.30,239.79,1.16,249.25,.91,248.95,.85,254.27,.86,257.26,.88,254.65,.77,253.33,.67,243.26,.55,232.43,.53,217.37,.56,211.27,.18,207.48
2018.11.21-13:00,1.42,229.65,1.41,230.54,1.54,233.22,1.41,231.19,1.32,238.53,1.16,248.37,.92,247.93,.87,252.76,.90,256.48,.92,256.08,.78,254.38,.67,243.17,.57,231.22,.57,221.78,.59,216.89,.18,212.70
2018.11.21-14:00,1.56,228.03,1.55,229.20,1.61,232.36,1.48,228.77,1.34,237.13,1.17,246.94,.92,246.40,.89,251.22,.93,255.66,.93,257.48,.79,254.86,.68,242.53,.59,230.36,.60,226.24,.60,222.43,.19,217.69
2018.11.21-15:00,1.67,227.66,1.66,229.09,1.64,231.63,1.55,227.23,1.36,235.98,1.18,245.53,.93,244.93,.90,250.00,.94,254.92,.93,258.60,.78,254.55,.67,240.98,.61,229.79,.61,230.20,.59,227.32,.18,222.07
2018.11.21-16:00,1.72,228.21,1.70,229.83,1.66,231.46,1.63,227.73,1.38,235.71,1.19,244.61,.94,243.83,.91,249.28,.95,254.41,.91,259.32,.76,253.33,.65,238.22,.61,229.14,.59,233.04,.56,230.89,.17,225.28
2018.11.21-17:00,1.72,229.96,1.67,231.86,1.68,233.00,1.69,230.94,1.41,237.16,1.19,244.62,.94,243.16,.91,248.93,.95,254.06,.87,259.38,.71,250.96,.63,234.11,.59,227.84,.55,234.03,.51,232.17,.16,226.44
2018.11.21-18:00,1.67,232.01,1.60,234.30,1.68,235.64,1.70,235.50,1.44,239.99,1.18,245.12,.95,242.69,.91,248.81,.93,253.97,.82,259.03,.67,247.94,.61,229.74,.56,226.09,.49,233.07,.44,230.59,.14,225.00
2018.11.21-19:00,1.60,233.14,1.50,235.63,1.64,237.93,1.66,239.47,1.43,242.81,1.15,245.23,.94,242.17,.89,248.93,.91,254.24,.77,258.81,.63,245.51,.60,226.88,.54,224.62,.44,230.55,.37,225.82,.12,220.46
2018.11.21-20:00,1.54,233.09,1.44,235.30,1.58,239.51,1.59,242.39,1.40,245.00,1.10,244.64,.93,241.64,.88,249.05,.88,254.43,.74,258.63,.60,244.47,.60,226.25,.53,223.88,.40,226.95,.33,218.04,.11,212.87
2018.11.21-21:00,1.52,232.36,1.45,233.71,1.51,240.64,1.52,244.82,1.36,247.06,1.05,243.84,.93,241.36,.87,248.75,.86,253.79,.71,257.70,.60,244.46,.61,227.52,.53,224.19,.39,223.32,.32,209.62,.11,204.78
2018.11.21-22:00,1.54,230.55,1.51,231.60,1.45,240.96,1.44,246.86,1.31,249.42,1.00,243.41,.93,241.81,.88,248.17,.85,252.24,.70,255.64,.61,244.70,.63,230.04,.54,225.67,.41,221.00,.34,204.38,.12,199.84
2018.11.21-23:00,1.58,228.10,1.55,229.50,1.39,239.50,1.35,247.19,1.22,250.94,.96,242.71,.95,242.64,.89,247.59,.86,250.38,.71,253.04,.63,245.04,.66,233.48,.58,228.36,.46,221.18,.40,204.61,.13,200.14
2018.11.21-24:00,1.63,226.97,1.61,228.66,1.36,236.56,1.27,245.04,1.13,250.03,.93,240.75,.96,243.37,.91,247.33,.88,249.01,.73,250.76,.67,245.33,.71,237.02,.62,231.28,.52,222.86,.47,208.20,.16,204.32
2018.11.22-01:00,1.77,227.78,1.73,229.82,1.42,233.63,1.25,241.51,1.07,246.05,.96,237.28,.99,243.77,.93,247.36,.90,248.38,.76,249.15,.69,245.25,.74,239.92,.65,233.25,.58,224.31,.54,212.00,.18,208.81
2018.11.22-02:00,1.90,228.56,1.84,230.90,1.52,231.11,1.26,237.46,1.06,240.07,1.02,233.47,1.02,243.56,.95,247.11,.91,247.90,.78,247.95,.72,244.93,.75,242.10,.65,234.45,.62,225.93,.59,216.28,.19,213.45
2018.11.22-03:00,1.95,228.88,1.87,231.36,1.60,229.58,1.29,233.41,1.09,234.04,1.10,230.43,1.05,242.61,.97,245.97,.92,246.69,.80,246.60,.75,244.30,.76,243.36,.64,235.09,.63,228.10,.61,221.36,.19,218.48
2018.11.22-04:00,1.92,229.43,1.84,231.98,1.66,229.47,1.35,230.75,1.16,230.13,1.16,228.99,1.07,241.49,.97,243.99,.91,244.46,.82,244.72,.76,243.16,.74,243.19,.62,234.75,.61,230.33,.59,226.57,.18,223.37
2018.11.22-05:00,1.81,231.25,1.75,233.76,1.69,230.67,1.40,230.37,1.23,229.12,1.21,229.36,1.09,241.24,.98,241.92,.91,241.78,.82,242.49,.76,241.46,.71,241.20,.59,232.69,.57,231.44,.55,230.57,.16,226.71
2018.11.22-06:00,1.66,234.83,1.63,237.46,1.67,232.67,1.43,231.17,1.29,229.66,1.23,230.60,1.10,241.87,.98,240.29,.91,239.37,.82,240.47,.74,239.62,.67,237.70,.55,228.96,.51,230.58,.49,232.34,.13,227.12
2018.11.22-07:00,1.50,238.90,1.48,242.24,1.63,234.99,1.44,231.84,1.33,230.17,1.24,231.57,1.09,242.44,.98,238.95,.90,237.51,.81,239.05,.71,238.05,.64,233.67,.52,224.69,.45,227.83,.42,231.60,.11,224.22
2018.11.22-08:00,1.34,240.90,1.30,245.42,1.55,237.22,1.43,232.30,1.34,230.38,1.24,232.20,1.07,242.47,.98,237.84,.90,236.29,.79,238.12,.68,236.77,.62,230.09,.51,221.05,.41,223.76,.36,228.29,.10,218.23
2018.11.22-09:00,1.20,238.75,1.14,243.93,1.44,238.95,1.41,233.21,1.35,231.17,1.24,233.39,1.04,242.44,.97,237.31,.90,235.86,.78,237.41,.66,235.43,.62,227.37,.52,218.55,.40,219.27,.34,222.59,.10,210.52
2018.11.22-10:00,1.15,231.58,1.10,234.83,1.35,238.19,1.39,233.78,1.34,232.24,1.21,235.28,.99,242.33,.95,237.47,.89,236.28,.77,237.04,.64,234.20,.63,226.07,.55,217.99,.43,217.12,.36,218.10,.11,206.19
2018.11.22-11:00,1.23,222.86,1.21,226.08,1.33,235.18,1.39,233.68,1.34,232.97,1.18,237.09,.94,241.50,.92,237.92,.88,237.08,.76,236.77,.64,233.01,.66,226.12,.59,219.11,.47,218.03,.40,216.93,.14,206.18
2018.11.22-12:00,1.42,219.60,1.40,223.13,1.37,232.23,1.41,233.21,1.34,233.15,1.16,238.18,.90,239.22,.91,237.95,.88,237.52,.77,236.15,.65,231.59,.69,226.82,.64,220.96,.52,220.65,.46,218.04,.16,208.20
2018.11.22-13:00,1.62,220.34,1.59,223.71,1.45,230.04,1.42,232.26,1.35,232.92,1.14,238.54,.89,235.70,.90,237.39,.89,237.40,.78,235.15,.67,230.03,.72,227.58,.68,222.82,.56,223.59,.51,219.92,.18,210.63
2018.11.22-14:00,1.76,222.43,1.71,225.39,1.52,228.71,1.43,230.91,1.37,232.86,1.14,238.51,.92,232.10,.92,236.34,.90,236.65,.80,233.56,.70,228.44,.75,228.00,.70,224.19,.59,225.98,.55,221.54,.19,212.50
2018.11.22-15:00,1.80,224.44,1.73,227.14,1.58,228.08,1.45,229.38,1.40,233.15,1.15,238.23,.97,229.49,.94,235.04,.91,235.41,.81,231.43,.72,226.82,.77,227.84,.70,224.78,.59,227.29,.56,222.27,.20,213.16
2018.11.22-16:00,1.77,225.49,1.70,228.14,1.62,227.90,1.50,228.18,1.41,233.63,1.16,237.68,1.03,227.79,.95,233.26,.91,233.45,.81,228.55,.73,225.24,.76,227.23,.67,224.87,.56,227.77,.54,222.33,.19,212.69
2018.11.22-17:00,1.71,225.25,1.63,228.32,1.62,228.58,1.54,228.67,1.40,234.78,1.14,237.15,1.06,226.58,.95,230.59,.90,230.27,.81,224.56,.73,223.36,.74,226.20,.62,224.69,.52,227.70,.50,221.97,.17,210.98
2018.11.22-18:00,1.64,224.37,1.56,228.25,1.59,229.85,1.57,231.03,1.38,236.59,1.11,236.42,1.07,225.25,.95,226.91,.88,225.84,.80,219.86,.70,220.67,.71,224.74,.56,224.44,.45,227.61,.44,221.77,.14,208.65
2018.11.22-19:00,1.58,224.47,1.49,229.30,1.55,231.20,1.56,234.17,1.35,238.57,1.05,234.96,1.06,223.64,.94,223.00,.86,221.13,.79,215.45,.67,217.12,.66,222.82,.48,223.82,.39,227.35,.38,221.91,.12,206.05
2018.11.22-20:00,1.52,225.53,1.43,231.63,1.51,232.26,1.51,236.81,1.29,240.41,.99,232.75,1.04,222.54,.93,220.54,.84,217.99,.78,212.74,.64,213.60,.61,220.42,.43,221.82,.33,225.02,.33,220.84,.11,202.68
2018.11.22-21:00,1.44,226.96,1.35,234.02,1.46,232.95,1.43,238.27,1.21,241.59,.92,229.98,1.01,222.75,.91,220.59,.82,217.75,.76,212.80,.61,211.66,.58,217.89,.41,218.27,.31,219.08,.31,216.90,.12,198.85
2018.11.22-22:00,1.36,227.24,1.30,233.55,1.44,232.74,1.36,238.32,1.11,241.08,.88,226.44,.98,224.13,.88,222.73,.79,220.26,.73,215.58,.58,212.29,.56,216.39,.42,215.51,.34,213.13,.34,212.63,.13,197.01
2018.11.22-23:00,1.37,223.72,1.34,228.59,1.46,230.76,1.31,236.89,1.03,238.11,.87,222.36,.96,225.72,.86,225.70,.77,224.19,.70,219.93,.55,215.38,.55,217.01,.45,215.86,.39,211.69,.39,211.87,.16,198.62
2018.11.22-24:00,1.49,218.71,1.47,223.61,1.52,228.31,1.29,234.57,1.00,233.52,.91,218.83,.96,226.60,.86,228.11,.77,227.63,.69,224.01,.54,219.37,.55,219.38,.49,218.65,.44,213.91,.45,214.01,.18,202.41
2018.11.23-01:00,1.67,217.58,1.63,223.12,1.63,227.91,1.31,233.24,1.04,230.12,1.01,217.70,1.01,227.12,.88,229.28,.79,229.22,.69,226.16,.55,222.02,.56,221.75,.51,221.63,.47,216.87,.48,216.47,.19,205.73
2018.11.23-02:00,1.79,218.58,1.73,224.45,1.73,228.85,1.37,232.80,1.13,228.61,1.14,218.86,1.09,227.92,.91,229.62,.81,229.22,.70,226.48,.57,223.05,.56,223.62,.52,224.51,.48,220.33,.50,219.22,.19,208.30
2018.11.23-03:00,1.85,219.65,1.77,225.50,1.78,229.55,1.40,231.45,1.21,226.90,1.25,220.64,1.16,229.08,.93,229.28,.84,228.27,.71,225.84,.59,223.23,.58,225.25,.52,227.70,.49,224.82,.51,222.99,.18,211.17
2018.11.23-04:00,1.86,223.24,1.77,228.67,1.78,230.39,1.43,229.67,1.27,224.86,1.33,222.55,1.21,230.31,.93,228.32,.85,226.98,.72,224.69,.62,222.53,.59,225.75,.52,229.91,.48,228.68,.50,226.32,.17,213.51
2018.11.23-05:00,1.81,229.18,1.73,234.41,1.76,231.48,1.47,228.68,1.32,222.94,1.37,224.66,1.22,231.76,.93,227.66,.86,226.19,.72,223.81,.63,221.11,.59,224.49,.50,229.97,.45,230.53,.47,227.93,.15,213.89
2018.11.23-06:00,1.72,235.10,1.65,240.90,1.71,232.92,1.50,228.66,1.37,221.49,1.38,226.93,1.21,233.76,.92,228.25,.85,226.35,.72,224.06,.63,219.71,.57,221.71,.46,227.13,.41,229.53,.42,227.02,.13,211.26
2018.11.23-07:00,1.57,238.20,1.50,245.60,1.63,234.12,1.50,228.69,1.41,220.55,1.36,229.20,1.17,236.21,.90,230.09,.84,227.69,.71,226.04,.61,219.43,.55,218.64,.42,221.53,.37,225.27,.37,223.20,.12,205.83
2018.11.23-08:00,1.39,236.86,1.32,246.99,1.53,234.59,1.48,228.43,1.45,220.26,1.31,231.15,1.08,238.43,.86,232.39,.82,229.75,.68,229.36,.58,220.62,.54,216.62,.41,215.41,.35,219.17,.35,217.90,.12,199.96
2018.11.23-09:00,1.24,231.43,1.16,243.57,1.43,233.90,1.44,228.21,1.46,221.02,1.24,232.72,.98,239.73,.81,234.32,.79,231.80,.64,232.90,.54,222.97,.53,216.61,.43,212.11,.36,214.64,.36,214.31,.13,196.77
2018.11.23-10:00,1.18,224.17,1.08,235.73,1.38,232.17,1.42,228.51,1.45,222.89,1.17,234.08,.87,239.85,.76,235.46,.77,233.48,.60,235.49,.51,225.68,.53,218.82,.46,212.98,.39,213.67,.39,214.02,.14,197.50
2018.11.23-11:00,1.27,216.56,1.14,225.21,1.41,228.95,1.43,228.93,1.45,225.25,1.12,235.41,.80,238.90,.73,235.70,.77,235.12,.59,236.95,.49,228.07,.52,222.86,.49,216.62,.43,214.95,.41,215.25,.15,200.57
2018.11.23-12:00,1.44,211.96,1.31,217.53,1.50,225.92,1.49,229.48,1.50,227.60,1.13,236.46,.78,237.12,.74,235.26,.79,236.94,.59,237.67,.49,229.56,.52,227.65,.51,220.97,.44,216.36,.43,215.52,.16,202.93
2018.11.23-13:00,1.60,211.76,1.48,215.66,1.57,224.49,1.54,230.24,1.56,229.73,1.16,237.03,.82,235.23,.79,234.18,.84,238.41,.62,237.50,.51,229.82,.53,232.10,.52,225.15,.45,217.49,.44,214.59,.17,203.54
2018.11.23-14:00,1.75,213.71,1.63,216.97,1.63,223.67,1.57,229.81,1.60,230.86,1.18,236.80,.87,232.75,.85,232.08,.88,238.86,.65,236.41,.53,229.35,.55,236.17,.53,229.85,.47,219.91,.46,214.74,.17,204.16
2018.11.23-15:00,1.82,216.80,1.70,219.75,1.69,223.50,1.59,228.43,1.61,231.41,1.18,236.28,.91,230.28,.90,229.45,.89,238.01,.67,234.59,.55,227.91,.56,238.89,.54,234.45,.48,223.24,.49,216.09,.18,205.11
2018.11.23-16:00,1.83,220.85,1.70,223.77,1.73,224.07,1.59,226.83,1.56,231.53,1.13,235.72,.94,228.31,.95,227.19,.89,236.25,.69,232.71,.57,225.49,.55,239.33,.54,237.64,.49,226.10,.51,217.48,.18,205.89
2018.11.23-17:00,1.80,225.31,1.68,228.12,1.73,224.77,1.59,225.20,1.47,230.73,1.05,234.28,.94,226.47,.98,226.03,.86,234.49,.69,231.43,.58,222.98,.53,237.61,.51,238.69,.47,227.75,.51,218.37,.17,206.02
2018.11.23-18:00,1.74,229.51,1.63,232.20,1.69,225.15,1.58,223.54,1.39,228.39,.98,230.31,.94,223.74,1.00,225.48,.82,232.60,.67,230.80,.57,221.24,.49,234.72,.46,237.96,.44,228.44,.49,219.01,.16,205.42
2018.11.23-19:00,1.65,232.93,1.58,235.44,1.64,225.55,1.59,222.29,1.35,224.95,.95,223.86,.96,219.92,.99,224.83,.77,229.78,.64,230.43,.54,220.58,.43,231.78,.39,235.83,.38,228.52,.43,219.74,.15,204.15
2018.11.23-20:00,1.52,236.15,1.49,238.40,1.57,227.46,1.58,222.77,1.32,222.57,.95,217.68,.99,216.38,.96,223.77,.71,225.42,.59,229.64,.49,220.57,.38,228.82,.33,231.07,.31,226.39,.38,219.56,.13,201.41
2018.11.23-21:00,1.37,238.36,1.36,240.43,1.47,230.81,1.53,225.33,1.28,222.39,.96,213.71,1.01,214.41,.91,222.35,.67,219.87,.55,228.09,.45,220.87,.35,226.50,.30,224.17,.27,220.83,.33,217.57,.12,196.92
2018.11.23-22:00,1.21,236.80,1.21,239.07,1.36,233.34,1.45,229.03,1.21,224.02,.95,211.87,1.01,214.22,.86,220.79,.66,214.47,.51,225.91,.42,221.69,.34,226.66,.31,219.80,.27,215.32,.31,215.55,.12,193.52
2018.11.23-23:00,1.15,226.44,1.13,229.49,1.29,231.27,1.39,232.13,1.17,226.39,.96,212.35,1.00,216.11,.82,220.09,.67,211.46,.49,224.45,.41,223.63,.35,230.09,.33,219.98,.27,213.10,.30,214.84,.12,193.08
2018.11.23-24:00,1.27,213.66,1.20,217.01,1.29,225.30,1.35,233.55,1.16,228.51,1.01,215.15,1.01,219.93,.82,221.05,.71,212.06,.51,224.48,.42,226.26,.36,234.16,.35,221.80,.27,211.91,.28,213.23,.11,192.56
2018.11.24-01:00,1.47,208.95,1.38,212.04,1.37,220.08,1.32,232.38,1.17,228.67,1.09,218.46,1.03,224.23,.84,223.01,.77,215.06,.54,225.21,.45,228.55,.38,236.84,.37,224.05,.27,211.58,.27,210.57,.11,191.03
2018.11.24-02:00,1.63,211.99,1.54,215.10,1.49,219.31,1.31,229.14,1.20,226.25,1.17,220.75,1.05,227.54,.85,224.68,.83,218.45,.58,225.33,.48,229.49,.40,237.72,.39,226.79,.29,213.52,.29,209.39,.11,191.55
2018.11.24-03:00,1.72,218.21,1.63,221.66,1.59,221.71,1.34,225.43,1.25,222.81,1.23,222.37,1.05,229.64,.87,226.04,.87,221.41,.62,224.63,.51,229.05,.42,236.82,.42,229.39,.32,216.99,.33,210.32,.12,194.65
2018.11.24-04:00,1.75,224.66,1.66,228.53,1.66,225.29,1.39,222.79,1.31,220.22,1.27,224.40,1.05,231.49,.87,227.74,.89,224.17,.65,223.77,.53,227.92,.43,233.95,.44,230.20,.35,219.19,.37,210.81,.13,197.57
2018.11.24-05:00,1.71,230.67,1.62,234.78,1.65,229.65,1.43,221.72,1.36,218.80,1.27,226.67,1.03,233.27,.87,229.86,.89,226.68,.67,223.11,.54,226.89,.44,229.65,.44,228.56,.37,218.97,.40,209.68,.14,198.27
2018.11.24-06:00,1.61,235.28,1.53,239.20,1.56,233.57,1.47,221.40,1.41,217.78,1.26,227.96,1.00,234.07,.85,231.83,.87,228.56,.68,223.01,.55,226.96,.44,225.60,.42,225.47,.36,217.28,.42,207.79,.14,196.83
2018.11.24-07:00,1.48,236.49,1.40,240.08,1.42,234.73,1.48,221.00,1.46,217.41,1.22,228.20,.95,233.56,.81,232.98,.82,229.63,.68,223.70,.54,228.80,.44,223.14,.41,221.96,.34,215.09,.41,206.29,.14,194.03
2018.11.24-08:00,1.33,234.67,1.26,238.27,1.27,233.38,1.46,221.37,1.47,218.63,1.15,228.17,.88,231.74,.73,232.32,.76,229.10,.66,224.36,.52,231.49,.45,222.26,.40,218.63,.33,212.87,.41,205.83,.13,190.57
2018.11.24-09:00,1.21,230.01,1.12,233.81,1.13,230.36,1.40,223.32,1.45,221.75,1.07,228.24,.81,228.64,.66,228.63,.70,226.07,.64,223.83,.50,233.68,.45,222.96,.40,217.02,.32,212.21,.40,207.39,.13,188.29
2018.11.24-10:00,1.19,223.21,1.08,226.87,1.09,226.49,1.35,226.75,1.41,226.74,1.00,229.42,.78,226.02,.61,222.59,.68,221.32,.62,222.02,.47,234.37,.45,224.59,.41,217.27,.30,212.98,.38,210.22,.12,187.48
2018.11.24-11:00,1.32,216.65,1.17,219.62,1.15,222.33,1.34,229.84,1.39,231.95,.97,231.62,.78,225.70,.62,217.49,.69,217.79,.62,220.80,.44,234.27,.45,226.85,.41,218.85,.28,213.85,.34,212.68,.11,185.99
2018.11.24-12:00,1.52,213.15,1.33,215.59,1.29,219.11,1.36,230.88,1.38,235.41,.96,233.37,.81,227.29,.67,215.46,.73,217.32,.63,221.56,.43,234.54,.45,229.85,.40,221.44,.26,213.78,.31,213.43,.10,182.38
2018.11.24-13:00,1.71,212.50,1.49,214.61,1.45,217.20,1.39,229.60,1.35,236.02,.95,232.78,.84,228.64,.73,215.27,.79,219.13,.65,223.90,.43,235.76,.46,233.79,.41,225.57,.26,214.84,.31,213.95,.10,180.37
2018.11.24-14:00,1.85,214.68,1.62,216.71,1.59,217.60,1.41,227.46,1.32,234.23,.95,229.53,.86,228.15,.80,215.26,.84,221.54,.67,226.23,.45,236.93,.48,237.49,.44,230.32,.28,217.64,.32,215.35,.11,181.57
2018.11.24-15:00,1.93,219.23,1.71,221.38,1.71,220.43,1.45,225.81,1.30,231.72,.97,225.86,.87,226.61,.87,215.60,.88,223.52,.68,227.37,.47,236.89,.50,239.51,.46,233.97,.30,219.80,.34,216.14,.12,183.38
2018.11.24-16:00,1.94,224.64,1.74,226.97,1.77,224.59,1.51,225.14,1.33,230.13,1.02,224.31,.90,225.93,.92,217.06,.91,224.89,.68,227.28,.48,235.35,.49,239.20,.46,235.76,.31,219.93,.34,215.16,.12,183.80
2018.11.24-17:00,1.86,230.78,1.68,233.34,1.75,229.39,1.57,225.75,1.36,229.72,1.05,225.23,.91,226.58,.96,219.55,.93,225.87,.69,226.44,.48,232.65,.47,236.24,.44,235.10,.30,217.29,.33,211.73,.12,182.36
2018.11.24-18:00,1.69,236.45,1.54,239.10,1.65,233.18,1.59,226.78,1.36,229.38,1.05,226.32,.91,226.71,.97,221.86,.93,226.81,.70,225.56,.49,230.69,.44,232.50,.40,233.30,.28,214.16,.31,207.85,.12,179.68
2018.11.24-19:00,1.45,240.36,1.35,242.90,1.50,234.86,1.57,227.77,1.34,228.93,1.01,225.20,.89,224.46,.95,222.59,.90,227.26,.68,224.79,.48,230.84,.42,230.66,.36,232.40,.25,213.18,.27,205.79,.11,176.05
2018.11.24-20:00,1.19,241.69,1.11,244.28,1.34,235.00,1.49,229.64,1.28,229.36,.95,221.90,.85,220.26,.91,221.63,.85,226.84,.66,223.95,.47,232.57,.39,231.13,.32,232.24,.22,213.89,.23,205.06,.09,171.26
2018.11.24-21:00,.96,234.64,.90,237.18,1.20,232.03,1.38,232.02,1.20,231.23,.90,218.75,.83,217.31,.86,221.06,.80,226.92,.63,223.95,.45,235.49,.36,233.19,.28,231.61,.18,212.94,.20,202.14,.08,165.62
2018.11.24-22:00,.92,219.13,.84,221.03,1.15,227.18,1.29,235.01,1.11,234.65,.89,219.13,.83,219.48,.84,223.84,.77,229.47,.60,225.73,.42,238.74,.33,234.13,.23,225.46,.14,198.52,.17,186.14,.08,157.00
2018.11.24-23:00,1.06,206.18,.97,207.53,1.18,222.60,1.22,236.99,1.05,237.10,.91,222.34,.85,226.06,.85,229.94,.76,234.77,.59,229.76,.41,242.74,.31,233.85,.19,211.85,.15,174.04,.20,164.99,.10,149.24
2018.11.24-24:00,1.30,200.99,1.18,202.66,1.24,219.29,1.17,235.52,.99,234.92,.94,224.23,.87,232.37,.87,236.20,.77,240.86,.59,234.97,.41,247.81,.30,235.31,.20,202.41,.18,166.72,.25,159.49,.11,148.10
2018.11.25-01:00,1.58,202.30,1.43,205.00,1.36,218.89,1.15,230.78,.98,227.65,.97,223.14,.87,235.49,.88,240.43,.77,245.59,.59,239.51,.42,252.40,.32,239.09,.23,204.75,.21,175.54,.29,166.54,.12,152.97
2018.11.25-02:00,1.83,207.20,1.62,211.42,1.50,220.68,1.18,224.99,1.04,219.80,1.02,221.29,.86,235.70,.87,242.47,.76,247.80,.59,241.68,.44,253.98,.34,241.92,.27,212.66,.24,191.91,.31,180.12,.12,162.17
2018.11.25-03:00,1.99,213.19,1.73,218.81,1.63,222.61,1.27,220.43,1.16,215.78,1.09,221.44,.86,234.58,.86,243.05,.74,247.54,.60,241.04,.45,251.77,.36,241.88,.30,219.93,.26,207.99,.33,194.81,.11,173.14
2018.11.25-04:00,2.07,219.75,1.79,226.07,1.72,224.75,1.40,218.52,1.30,215.65,1.18,223.88,.88,233.36,.86,242.80,.75,246.07,.61,238.99,.46,247.34,.38,239.32,.32,224.11,.28,219.26,.33,206.32,.10,182.81
2018.11.25-05:00,2.06,226.15,1.79,232.32,1.74,226.84,1.53,218.35,1.43,217.10,1.25,227.11,.92,232.59,.86,242.26,.76,245.14,.63,237.91,.48,243.75,.39,235.99,.33,225.22,.27,224.86,.32,212.99,.09,187.78
2018.11.25-06:00,1.96,232.84,1.73,238.67,1.69,229.71,1.60,220.13,1.51,219.68,1.27,230.38,.95,232.43,.85,241.66,.77,245.25,.65,238.55,.51,242.10,.40,232.82,.33,222.46,.26,222.51,.31,212.82,.09,185.11
2018.11.25-07:00,1.80,239.13,1.63,245.08,1.59,233.75,1.62,223.85,1.54,223.16,1.23,233.24,.95,232.42,.83,240.48,.76,245.55,.65,240.07,.54,241.87,.41,231.07,.34,217.45,.25,213.30,.30,206.93,.10,177.08
2018.11.25-08:00,1.56,243.69,1.44,249.95,1.42,237.04,1.58,227.74,1.54,226.78,1.17,234.87,.92,231.78,.80,238.22,.73,244.83,.65,241.42,.55,242.47,.42,232.17,.35,214.32,.25,204.46,.30,200.70,.10,170.19
2018.11.25-09:00,1.20,244.84,1.12,251.46,1.19,236.07,1.50,230.03,1.52,230.34,1.10,235.43,.91,230.93,.79,236.02,.70,243.07,.64,242.08,.56,243.12,.43,235.58,.35,214.16,.25,199.14,.28,196.05,.11,165.93
2018.11.25-10:00,.95,234.15,.85,241.47,1.06,227.35,1.46,230.61,1.49,233.60,1.04,235.43,.92,231.26,.79,235.53,.68,241.91,.64,242.87,.56,243.93,.43,240.10,.34,214.97,.23,193.39,.26,188.84,.11,158.96
2018.11.25-11:00,.98,217.79,.82,222.59,1.09,216.84,1.45,230.71,1.47,236.61,1.03,235.67,.95,233.46,.80,236.58,.68,241.84,.64,243.73,.56,244.49,.42,244.59,.32,215.45,.22,185.67,.24,177.88,.11,149.09
2018.11.25-12:00,1.20,208.84,.98,209.33,1.25,210.91,1.46,230.38,1.44,238.66,1.04,235.54,.97,236.32,.82,238.16,.69,242.32,.64,244.25,.57,244.65,.41,248.68,.32,217.19,.23,182.11,.26,171.10,.12,143.38
2018.11.25-13:00,1.50,207.97,1.22,205.19,1.47,211.00,1.50,230.23,1.40,238.69,1.06,234.00,.99,238.15,.84,238.85,.71,242.25,.66,243.85,.58,244.38,.41,251.71,.33,221.27,.24,186.85,.28,173.52,.13,145.09
2018.11.25-14:00,1.77,211.41,1.47,206.95,1.70,214.03,1.51,229.43,1.33,236.19,1.07,231.45,.98,238.33,.85,237.80,.73,240.99,.68,241.97,.60,243.74,.41,252.64,.34,226.49,.26,198.68,.31,184.18,.12,154.55
2018.11.25-15:00,1.96,216.23,1.67,211.22,1.87,217.21,1.52,227.01,1.29,231.86,1.11,229.58,.97,237.24,.88,235.40,.77,238.75,.72,238.63,.62,242.66,.40,251.09,.36,230.08,.29,209.91,.34,195.86,.12,167.53
2018.11.25-16:00,2.05,220.31,1.83,216.21,2.02,220.15,1.61,223.83,1.33,227.28,1.16,229.16,.99,235.34,.93,232.78,.82,236.19,.77,234.77,.62,241.23,.37,247.66,.35,231.44,.30,216.60,.35,203.65,.12,178.03
2018.11.25-17:00,2.04,224.12,1.90,221.00,2.09,223.56,1.75,222.21,1.43,224.01,1.19,229.39,1.02,232.87,1.01,230.49,.88,233.59,.83,231.26,.61,239.49,.34,241.99,.32,230.28,.28,219.45,.33,208.05,.11,183.91
2018.11.25-18:00,1.93,228.95,1.84,226.52,2.05,228.05,1.86,223.31,1.53,223.19,1.19,229.32,1.04,230.01,1.07,228.61,.91,230.93,.88,228.59,.60,237.29,.31,233.11,.28,224.69,.24,216.85,.30,208.32,.10,182.36
2018.11.25-19:00,1.72,234.14,1.65,232.50,1.88,233.03,1.87,225.87,1.57,223.96,1.17,227.99,1.06,226.77,1.10,227.07,.93,228.38,.90,227.10,.57,234.64,.29,222.61,.25,214.98,.21,207.66,.27,203.99,.09,171.60
2018.11.25-20:00,1.46,237.78,1.41,237.19,1.63,237.32,1.77,228.66,1.53,225.15,1.13,225.67,1.08,224.08,1.10,226.37,.91,226.40,.89,226.89,.53,231.20,.30,212.85,.25,203.46,.19,191.25,.24,192.79,.09,152.53
2018.11.25-21:00,1.23,236.55,1.18,236.95,1.38,239.56,1.62,232.05,1.44,227.07,1.09,224.48,1.09,224.03,1.07,227.52,.88,225.79,.84,227.98,.48,226.25,.31,204.07,.27,191.41,.21,170.45,.24,172.82,.11,135.80
2018.11.25-22:00,1.06,228.80,1.03,229.72,1.15,238.09,1.44,235.57,1.34,229.83,1.04,225.41,1.06,226.86,1.01,230.71,.84,226.79,.77,230.11,.45,220.28,.33,197.60,.30,182.39,.27,156.82,.30,155.43,.13,130.09
2018.11.25-23:00,1.05,216.96,1.03,218.56,1.02,230.31,1.27,236.13,1.23,231.12,1.00,226.42,1.01,230.32,.94,234.58,.80,228.44,.69,232.35,.43,215.40,.35,195.57,.33,179.90,.32,153.94,.37,149.45,.16,131.95